Weather History for KP53 - June, 2014

Change the Weather History Date:

Thursday, June 19, 2014

  Actual Average (KISQ) Record (KISQ)
Temperature  
Mean Temperature 60 °F -  
Max Temperature 73 °F 71 °F 83 °F (1987)
Min Temperature 46 °F 49 °F 34 °F (1958)
Degree Days  
Heating Degree Days 6    
Growing Degree Days 10 (Base 50)    
Moisture  
Dew Point 39 °F    
Average Humidity 53    
Maximum Humidity 86    
Minimum Humidity 16    
Precipitation  
Precipitation 0.00 in - - ()
Sea Level Pressure  
Sea Level Pressure 30.19 in    
Wind  
Wind Speed 4 mph (SE)    
Max Wind Speed 9 mph    
Max Gust Speed 17 mph    
Averages and records for this station are not official NWS values.
T = Trace of Precipitation, MM = Missing Value Source: NWS Daily Summary

Daily Weather History Graph

Daily Weather History Graph

Search for Another Location

Airport or City:

Trip Planner

Search our weather history database for the weather conditions in past years. The results will help you decide how hot, cold, wet, or windy it might be!

Date:

Astronomy

Jun. 19, 2014 Rise Set
Actual Time 5:53 AM EDT 9:42 PM EDT
Civil Twilight 5:14 AM EDT 10:21 PM EDT
Nautical Twilight 4:21 AM EDT 11:14 PM EDT
Astronomical Twilight 3:05 AM EDT 12:30 AM EDT
Moon 1:22 AM EDT (6/19) 1:48 PM EDT (6/19)
Length of Visible Light 17h 06m
Length of Day
15h 48m
Waning Gibbous, 51% of the Moon is Illuminated
Jun 19
Waning Gibbous
Jun 19
Last Quarter
Jun 27
New
Jul 5
First Quarter
Jul 12
Full

Hourly Weather History & Observations

Time (EDT) Temp. Windchill Dew Point Humidity Pressure Visibility Wind Dir Wind Speed Gust Speed Precip Events Conditions
12:56 AM 46.9 °F - 42.1 °F 83% 30.17 in - Calm Calm - N/A   Unknown
1:56 AM 46.0 °F 43.9 °F 41.0 °F 83% 30.16 in - South 4.6 mph - N/A   Unknown
2:56 AM 46.0 °F 43.1 °F 42.1 °F 86% 30.17 in - South 5.8 mph - N/A   Unknown
3:56 AM 46.0 °F 44.8 °F 41.0 °F 83% 30.17 in - SSW 3.5 mph - N/A   Unknown
4:56 AM 46.0 °F - 41.0 °F 83% 30.19 in - Calm Calm - N/A   Unknown
6:56 AM 50.0 °F - 44.1 °F 80% 30.22 in - Calm Calm - N/A   Unknown
7:56 AM 60.1 °F - 48.0 °F 64% 30.22 in - Variable 4.6 mph - N/A   Unknown
8:56 AM 64.9 °F - 46.9 °F 52% 30.21 in - SE 9.2 mph - N/A   Unknown
9:56 AM 68.0 °F - 46.9 °F 47% 30.24 in - SSE 9.2 mph - N/A   Unknown
10:56 AM 70.0 °F - 48.0 °F 46% 30.25 in - Variable 4.6 mph - N/A   Unknown
11:56 AM 72.0 °F - 46.0 °F 40% 30.24 in - ESE 6.9 mph - N/A   Unknown
12:56 PM 55.0 °F - 39.0 °F 55% 30.25 in - ENE 4.6 mph - N/A   Unknown
1:56 PM 55.9 °F - 39.0 °F 53% 30.24 in - NE 9.2 mph - N/A   Unknown
2:56 PM 55.9 °F - 39.0 °F 53% 30.22 in - NNE 5.8 mph - N/A   Unknown
3:56 PM 57.0 °F - 37.9 °F 49% 30.21 in - NE 5.8 mph - N/A   Unknown
4:56 PM 57.9 °F - 37.9 °F 47% 30.17 in - NNE 6.9 mph - N/A   Unknown
5:56 PM 57.9 °F - 37.9 °F 47% 30.16 in - North 3.5 mph - N/A   Unknown
6:56 PM 60.1 °F - 37.9 °F 44% 30.15 in - Calm Calm - N/A   Unknown
7:56 PM 73.0 °F - 36.0 °F 26% 30.14 in - South 8.1 mph - N/A   Unknown
8:56 PM 70.0 °F - 33.1 °F 26% 30.14 in - South 8.1 mph - N/A   Unknown
9:56 PM 64.9 °F - 26.1 °F 23% 30.14 in - SE 3.5 mph - N/A   Unknown
10:56 PM 61.0 °F - 26.1 °F 26% 30.16 in - South 5.8 mph - N/A   Unknown
11:56 PM 63.0 °F - 16.0 °F 16% 30.14 in - SE 8.1 mph 17.3 mph N/A   Unknown